MICROSAT-R DEB 1 44134U 19006V 21105.22792654 .04169580 17242-5 17289-2 0 9991 2 44134 96.0179 213.0060 0039285 312.3327 47.4640 16.21063414110869 MICROSAT-R DEB 1 44383U 19006DE 21110.39648226 .00021853 15393-5 33724-3 0 9990 2 44383 96.1824 159.7348 0697931 263.2507 88.8852 14.34131059 99100